NWS903 URWW-UWKD

Flight info

Callsign NWS903
Flight time 1h 44m
Altitude 35000
Route RODUN1E RODUN R807 UROBO P135 DAFOS T789 SONUM SONUM1R
Aircraft B738/M-SDE2E3FGHIRWXY/LB1

Departure

Time 2026-05-07 18:09
Airport Volgograd International Airport (URWW)

Arrival

Time 2026-05-07 19:53
Airport Kazan International Airport (UWKD)
Time Latitude Longitude Altitude Speed Heading
2026-05-07 17:31 48.79103 44.35615 485 ft 0 kts 340°
2026-05-07 17:55 48.79091 44.35621 480 ft 4 kts 340°
2026-05-07 17:56 48.79069 44.35633 482 ft 4 kts 333°
2026-05-07 17:56 48.79054 44.35656 479 ft 4 kts 273°
2026-05-07 17:56 48.79060 44.35692 477 ft 4 kts 242°
2026-05-07 17:56 48.79069 44.35718 478 ft 0 kts 249°
2026-05-07 18:01 48.79069 44.35717 478 ft 1 kts 249°
2026-05-07 18:01 48.79062 44.35692 477 ft 5 kts 249°
2026-05-07 18:02 48.79002 44.35452 478 ft 18 kts 250°
2026-05-07 18:02 48.78951 44.35243 481 ft 24 kts 250°
2026-05-07 18:02 48.78889 44.35111 485 ft 8 kts 182°
2026-05-07 18:03 48.78836 44.35134 482 ft 8 kts 161°
2026-05-07 18:03 48.78767 44.35170 485 ft 14 kts 161°
2026-05-07 18:03 48.78701 44.35203 483 ft 0 kts 161°
2026-05-07 18:06 48.78700 44.35203 483 ft 1 kts 161°
2026-05-07 18:07 48.78681 44.35213 481 ft 6 kts 161°
2026-05-07 18:07 48.78625 44.35243 482 ft 11 kts 156°
2026-05-07 18:07 48.78583 44.35268 482 ft 0 kts 180°
2026-05-07 18:07 48.78565 44.35249 483 ft 7 kts 221°
2026-05-07 18:08 48.78527 44.35139 481 ft 16 kts 244°
2026-05-07 18:08 48.78367 44.34636 473 ft 97 kts 244°
2026-05-07 18:08 48.77937 44.33375 499 ft 171 kts 240°
2026-05-07 18:08 48.77375 44.31567 1046 ft 202 kts 246°
2026-05-07 18:09 48.76795 44.29578 2025 ft 200 kts 248°
2026-05-07 18:09 48.76198 44.27718 3101 ft 207 kts 246°
2026-05-07 18:09 48.75525 44.25616 3349 ft 235 kts 246°
2026-05-07 18:09 48.74795 44.23287 3620 ft 256 kts 251°
2026-05-07 18:10 48.74596 44.20594 3994 ft 263 kts 281°
2026-05-07 18:10 48.75362 44.18150 4025 ft 258 kts 314°
2026-05-07 18:10 48.76858 44.16705 4037 ft 258 kts 343°
2026-05-07 18:10 48.78638 44.16556 4025 ft 260 kts 11°
2026-05-07 18:11 48.80314 44.17628 4264 ft 265 kts 30°
2026-05-07 18:11 48.81843 44.19195 5216 ft 263 kts 34°
2026-05-07 18:11 48.83312 44.20827 6234 ft 261 kts 34°
2026-05-07 18:11 48.84776 44.22471 7092 ft 264 kts 34°
2026-05-07 18:12 48.86262 44.24133 7926 ft 266 kts 34°
2026-05-07 18:12 48.87743 44.25782 8749 ft 269 kts 34°
2026-05-07 18:12 48.89262 44.27462 9590 ft 271 kts 34°
2026-05-07 18:12 48.90800 44.29158 10354 ft 277 kts 34°
2026-05-07 18:13 48.92429 44.30947 10586 ft 301 kts 34°
2026-05-07 18:13 48.94194 44.32880 10776 ft 325 kts 34°
2026-05-07 18:13 48.96066 44.34932 11230 ft 337 kts 34°
2026-05-07 18:13 48.97981 44.37031 11951 ft 340 kts 34°
2026-05-07 18:14 48.99909 44.39147 12745 ft 342 kts 34°
2026-05-07 18:14 49.01845 44.41272 13505 ft 345 kts 35°
2026-05-07 18:14 49.03781 44.43397 14163 ft 349 kts 35°
2026-05-07 18:14 49.05765 44.45577 14787 ft 353 kts 35°
2026-05-07 18:15 49.07766 44.47775 15432 ft 357 kts 35°
2026-05-07 18:15 49.09786 44.49998 16064 ft 360 kts 35°
2026-05-07 18:15 49.11833 44.52252 16689 ft 364 kts 35°
2026-05-07 18:15 49.13898 44.54528 16948 ft 367 kts 35°
2026-05-07 18:16 49.15972 44.56816 16957 ft 367 kts 35°
2026-05-07 18:16 49.18036 44.59097 16968 ft 367 kts 35°
2026-05-07 18:16 49.20103 44.61383 16975 ft 367 kts 35°
2026-05-07 18:16 49.22173 44.63674 16974 ft 367 kts 35°
2026-05-07 18:17 49.24239 44.65964 16966 ft 367 kts 35°
2026-05-07 18:17 49.26282 44.68230 16965 ft 368 kts 35°
2026-05-07 18:17 49.28354 44.70531 16967 ft 368 kts 35°
2026-05-07 18:17 49.30426 44.72833 16962 ft 368 kts 35°
2026-05-07 18:18 49.32502 44.75142 17021 ft 372 kts 35°
2026-05-07 18:18 49.34607 44.77482 17592 ft 375 kts 35°
2026-05-07 18:18 49.36715 44.79833 18370 ft 374 kts 35°
2026-05-07 18:18 49.38818 44.82184 18935 ft 376 kts 35°
2026-05-07 18:19 49.40954 44.84572 19452 ft 380 kts 35°
2026-05-07 18:19 49.43093 44.86966 19985 ft 383 kts 35°
2026-05-07 18:19 49.45262 44.89395 20515 ft 386 kts 35°
2026-05-07 18:19 49.47440 44.91838 21039 ft 389 kts 35°
2026-05-07 18:20 49.49637 44.94305 21547 ft 392 kts 35°
2026-05-07 18:20 49.51847 44.96788 22052 ft 395 kts 36°
2026-05-07 18:20 49.54041 44.99257 22539 ft 398 kts 36°
2026-05-07 18:20 49.56285 45.01786 23028 ft 401 kts 36°
2026-05-07 18:21 49.58546 45.04336 23502 ft 404 kts 36°
2026-05-07 18:21 49.60807 45.06888 24068 ft 399 kts 36°
2026-05-07 18:21 49.62957 45.09320 25478 ft 361 kts 36°
2026-05-07 18:21 49.64849 45.11463 27243 ft 318 kts 36°
2026-05-07 18:22 49.66583 45.13400 28314 ft 301 kts 32°
2026-05-07 18:22 49.67819 45.14376 28561 ft 304 kts 20°
2026-05-07 18:22 49.70649 45.15700 28354 ft 329 kts 15°
2026-05-07 18:22 49.72893 45.16626 28477 ft 340 kts 15°
2026-05-07 18:23 49.75219 45.17583 28566 ft 351 kts 15°
2026-05-07 18:23 49.77618 45.18590 28653 ft 362 kts 16°
2026-05-07 18:23 49.80086 45.19645 28733 ft 373 kts 16°
2026-05-07 18:23 49.82626 45.20747 28815 ft 384 kts 16°
2026-05-07 18:24 49.85229 45.21885 28889 ft 394 kts 16°
2026-05-07 18:24 49.90592 45.24245 29518 ft 399 kts 16°
2026-05-07 18:24 49.93267 45.25425 30001 ft 400 kts 16°
2026-05-07 18:25 49.95896 45.26586 30477 ft 395 kts 16°
2026-05-07 18:25 49.98526 45.27749 31075 ft 389 kts 16°
2026-05-07 18:25 50.01106 45.28890 31696 ft 382 kts 16°
2026-05-07 18:25 50.03656 45.29923 32305 ft 375 kts 13°
2026-05-07 18:26 50.06173 45.30802 32936 ft 366 kts 12°
2026-05-07 18:26 50.08638 45.31615 33593 ft 357 kts 12°
2026-05-07 18:26 50.11039 45.32399 34202 ft 347 kts 12°
2026-05-07 18:26 50.13365 45.33165 34694 ft 340 kts 12°
2026-05-07 18:27 50.15710 45.33945 34565 ft 352 kts 12°
2026-05-07 18:27 50.18154 45.34766 34399 ft 365 kts 12°
2026-05-07 18:27 50.20669 45.35617 34308 ft 376 kts 12°
2026-05-07 18:28 50.25864 45.37387 34417 ft 388 kts 12°
2026-05-07 18:28 50.31192 45.39210 34522 ft 400 kts 12°
2026-05-07 18:29 50.36715 45.41106 34621 ft 411 kts 12°
2026-05-07 18:29 50.42388 45.43058 34713 ft 422 kts 12°
2026-05-07 18:30 50.48186 45.45059 34792 ft 432 kts 12°
2026-05-07 18:30 50.54119 45.47110 34939 ft 440 kts 12°
2026-05-07 18:30 50.57068 45.48132 35093 ft 441 kts 12°
2026-05-07 18:31 50.60065 45.49172 35315 ft 440 kts 12°
2026-05-07 18:31 50.63046 45.50208 35541 ft 440 kts 12°
2026-05-07 18:31 50.66042 45.51249 35736 ft 440 kts 12°
2026-05-07 18:31 50.69037 45.52293 35887 ft 441 kts 12°
2026-05-07 18:32 50.72038 45.53340 36072 ft 442 kts 12°
2026-05-07 18:32 50.75039 45.54388 36274 ft 442 kts 12°
2026-05-07 18:32 50.78036 45.55436 36455 ft 442 kts 12°
2026-05-07 18:32 50.81037 45.56493 36618 ft 442 kts 12°
2026-05-07 18:33 50.84042 45.57564 36798 ft 443 kts 12°
2026-05-07 18:33 50.87039 45.58637 36946 ft 443 kts 12°
2026-05-07 18:33 50.90065 45.59722 36933 ft 446 kts 12°
2026-05-07 18:34 50.96101 45.61885 36950 ft 444 kts 12°
2026-05-07 18:34 51.02106 45.64066 36947 ft 441 kts 15°
2026-05-07 18:35 51.07772 45.67676 36956 ft 439 kts 25°
2026-05-07 18:35 51.13264 45.71900 36952 ft 438 kts 25°
2026-05-07 18:36 51.18729 45.76084 36948 ft 438 kts 25°
2026-05-07 18:36 51.24244 45.80254 36950 ft 439 kts 25°
2026-05-07 18:37 51.29781 45.84431 36949 ft 441 kts 25°
2026-05-07 18:37 51.35303 45.88606 36950 ft 443 kts 25°
2026-05-07 18:38 51.40888 45.92843 36945 ft 445 kts 25°
2026-05-07 18:38 51.46484 45.97096 37013 ft 445 kts 24°
2026-05-07 18:39 51.52098 46.01362 36946 ft 448 kts 25°
2026-05-07 18:39 51.57716 46.05707 36942 ft 449 kts 26°
2026-05-07 18:40 51.63288 46.10280 36941 ft 450 kts 26°
2026-05-07 18:40 51.68811 46.14881 36936 ft 449 kts 26°
2026-05-07 18:41 51.74360 46.19479 36939 ft 448 kts 26°
2026-05-07 18:41 51.79907 46.24072 36939 ft 447 kts 26°
2026-05-07 18:42 51.85439 46.28663 36941 ft 446 kts 26°
2026-05-07 18:42 51.90950 46.33243 36940 ft 445 kts 26°
2026-05-07 18:43 51.96453 46.37829 36941 ft 444 kts 26°
2026-05-07 18:43 52.01948 46.42423 36937 ft 444 kts 26°
2026-05-07 18:44 52.07421 46.47032 36942 ft 443 kts 27°
2026-05-07 18:44 52.12858 46.51627 36941 ft 444 kts 27°
2026-05-07 18:45 52.18340 46.56270 36943 ft 444 kts 26°
2026-05-07 18:45 52.23783 46.60901 36944 ft 443 kts 27°
2026-05-07 18:46 52.29298 46.65577 36951 ft 444 kts 26°
2026-05-07 18:46 52.34793 46.70189 36923 ft 443 kts 28°
2026-05-07 18:47 52.40266 46.74875 36935 ft 445 kts 27°
2026-05-07 18:47 52.45750 46.79594 36954 ft 446 kts 27°
2026-05-07 18:48 52.51256 46.84320 36950 ft 447 kts 27°
2026-05-07 18:48 52.56735 46.89052 36956 ft 449 kts 27°
2026-05-07 18:49 52.62266 46.93850 36954 ft 450 kts 27°
2026-05-07 18:49 52.67802 46.98664 36959 ft 450 kts 27°
2026-05-07 18:50 52.73343 47.03496 36961 ft 451 kts 27°
2026-05-07 18:50 52.78883 47.08340 36958 ft 451 kts 27°
2026-05-07 18:51 52.84413 47.13187 36953 ft 450 kts 27°
2026-05-07 18:51 52.89954 47.18054 36947 ft 450 kts 27°
2026-05-07 18:52 52.95483 47.22924 36963 ft 449 kts 27°
2026-05-07 18:52 53.01000 47.27800 36968 ft 449 kts 27°
2026-05-07 18:53 53.06502 47.32676 36962 ft 448 kts 27°
2026-05-07 18:53 53.12003 47.37565 36967 ft 448 kts 27°
2026-05-07 18:54 53.17544 47.42503 36960 ft 448 kts 27°
2026-05-07 18:54 53.23020 47.47393 36961 ft 447 kts 27°
2026-05-07 18:55 53.28513 47.52310 36970 ft 447 kts 27°
2026-05-07 18:55 53.33998 47.57236 36968 ft 447 kts 27°
2026-05-07 18:56 53.39477 47.62172 36957 ft 447 kts 27°
2026-05-07 18:56 53.44949 47.67115 36966 ft 448 kts 27°
2026-05-07 18:57 53.50537 47.71721 36976 ft 447 kts 21°
2026-05-07 18:57 53.56369 47.75440 36968 ft 448 kts 20°
2026-05-07 18:58 53.62185 47.79159 36970 ft 448 kts 20°
2026-05-07 18:58 53.67004 47.82339 36967 ft 448 kts 21°
2026-05-07 18:59 53.72898 47.85746 36969 ft 448 kts 13°
2026-05-07 18:59 53.78987 47.88061 36967 ft 448 kts 12°
2026-05-07 19:00 53.84960 47.91011 36961 ft 448 kts 22°
2026-05-07 19:00 53.90654 47.95337 36969 ft 449 kts 24°
2026-05-07 19:00 53.93487 47.97544 36502 ft 451 kts 24°
2026-05-07 19:01 53.96340 47.99750 35989 ft 447 kts 24°
2026-05-07 19:01 53.99181 48.01927 35341 ft 448 kts 24°
2026-05-07 19:01 54.02023 48.04090 34716 ft 448 kts 24°
2026-05-07 19:01 54.04859 48.06243 34081 ft 448 kts 24°
2026-05-07 19:02 54.07707 48.08403 33489 ft 445 kts 24°
2026-05-07 19:02 54.10513 48.10535 33020 ft 439 kts 24°
2026-05-07 19:02 54.13292 48.12650 32564 ft 434 kts 24°
2026-05-07 19:02 54.15995 48.14711 32130 ft 429 kts 24°
2026-05-07 19:03 54.18702 48.16778 31668 ft 424 kts 24°
2026-05-07 19:03 54.21380 48.18826 31238 ft 420 kts 24°
2026-05-07 19:03 54.24036 48.20861 30794 ft 416 kts 24°
2026-05-07 19:03 54.26649 48.22899 30378 ft 412 kts 26°
2026-05-07 19:04 54.29166 48.25155 30129 ft 403 kts 28°
2026-05-07 19:04 54.31626 48.27510 29743 ft 398 kts 29°
2026-05-07 19:04 54.34015 48.29848 29309 ft 394 kts 29°
2026-05-07 19:04 54.36380 48.32167 28877 ft 389 kts 29°
2026-05-07 19:05 54.38728 48.34459 28438 ft 386 kts 29°
2026-05-07 19:05 54.41051 48.36716 28014 ft 383 kts 29°
2026-05-07 19:05 54.43212 48.38808 27611 ft 380 kts 29°
2026-05-07 19:05 54.45530 48.41049 27180 ft 377 kts 29°
2026-05-07 19:06 54.47804 48.43247 26762 ft 374 kts 29°
2026-05-07 19:06 54.52301 48.47597 25939 ft 371 kts 29°
2026-05-07 19:06 54.54543 48.49769 25534 ft 371 kts 29°
2026-05-07 19:07 54.56807 48.51967 25135 ft 378 kts 29°
2026-05-07 19:07 54.59124 48.54217 24716 ft 386 kts 29°
2026-05-07 19:07 54.61465 48.56494 24164 ft 387 kts 29°
2026-05-07 19:07 54.63810 48.58778 23649 ft 388 kts 29°
2026-05-07 19:08 54.66165 48.61076 23118 ft 386 kts 29°
2026-05-07 19:08 54.68479 48.63337 22659 ft 383 kts 29°
2026-05-07 19:08 54.70799 48.65607 22234 ft 379 kts 29°
2026-05-07 19:08 54.73046 48.67807 21976 ft 371 kts 29°
2026-05-07 19:09 54.75240 48.69961 21960 ft 358 kts 29°
2026-05-07 19:09 54.77375 48.72059 21938 ft 346 kts 29°
2026-05-07 19:09 54.79420 48.74071 21942 ft 332 kts 29°
2026-05-07 19:09 54.81396 48.76017 21932 ft 319 kts 29°
2026-05-07 19:10 54.83278 48.77872 21942 ft 306 kts 29°
2026-05-07 19:10 54.85098 48.79669 21939 ft 294 kts 29°
2026-05-07 19:10 54.86836 48.81389 21941 ft 282 kts 29°
2026-05-07 19:10 54.87953 48.82494 21938 ft 276 kts 29°
2026-05-07 19:11 54.92144 48.86646 21983 ft 289 kts 28°
2026-05-07 19:11 54.93852 48.88343 21975 ft 276 kts 28°
2026-05-07 19:11 54.95490 48.89972 21944 ft 267 kts 28°
2026-05-07 19:12 54.97093 48.91567 21950 ft 266 kts 28°
2026-05-07 19:12 54.98706 48.93173 21962 ft 268 kts 28°
2026-05-07 19:12 55.00324 48.94786 21974 ft 269 kts 28°
2026-05-07 19:12 55.01930 48.96388 21969 ft 271 kts 28°
2026-05-07 19:13 55.03564 48.98020 21964 ft 271 kts 28°
2026-05-07 19:13 55.05204 48.99659 21966 ft 272 kts 28°
2026-05-07 19:13 55.06847 49.01303 21961 ft 272 kts 28°
2026-05-07 19:13 55.08485 49.02944 21951 ft 271 kts 28°
2026-05-07 19:14 55.10119 49.04584 21961 ft 271 kts 28°
2026-05-07 19:14 55.11754 49.06223 21952 ft 270 kts 28°
2026-05-07 19:14 55.13380 49.07857 21958 ft 269 kts 28°
2026-05-07 19:14 55.14999 49.09484 21959 ft 268 kts 28°
2026-05-07 19:15 55.16594 49.11089 21961 ft 268 kts 28°
2026-05-07 19:15 55.18015 49.13157 21944 ft 268 kts 53°
2026-05-07 19:15 55.18765 49.16119 21969 ft 267 kts 81°
2026-05-07 19:15 55.18659 49.19319 21973 ft 266 kts 108°
2026-05-07 19:16 55.17727 49.22090 21955 ft 267 kts 136°
2026-05-07 19:16 55.16172 49.23808 21968 ft 266 kts 164°
2026-05-07 19:16 55.14353 49.24090 21970 ft 264 kts 191°
2026-05-07 19:16 55.12624 49.23076 21966 ft 263 kts 209°
2026-05-07 19:17 55.11017 49.21547 21963 ft 264 kts 211°
2026-05-07 19:17 55.09410 49.19976 21966 ft 266 kts 210°
2026-05-07 19:17 55.07768 49.18479 21973 ft 266 kts 210°
2026-05-07 19:17 55.06233 49.16713 21934 ft 264 kts 228°
2026-05-07 19:18 55.05317 49.14039 21897 ft 255 kts 256°
2026-05-07 19:18 55.05242 49.11068 21585 ft 248 kts 285°
2026-05-07 19:18 55.06021 49.08541 21408 ft 233 kts 315°
2026-05-07 19:18 55.07342 49.06968 21044 ft 229 kts 331°
2026-05-07 19:19 55.08767 49.05726 20623 ft 229 kts 333°
2026-05-07 19:19 55.10201 49.04521 20244 ft 228 kts 333°
2026-05-07 19:19 55.11618 49.03341 19877 ft 226 kts 333°
2026-05-07 19:19 55.12987 49.02005 19502 ft 224 kts 326°
2026-05-07 19:20 55.14267 49.00482 19152 ft 222 kts 324°
2026-05-07 19:20 55.15542 48.98908 19013 ft 230 kts 323°
2026-05-07 19:20 55.16901 48.97216 19001 ft 252 kts 323°
2026-05-07 19:20 55.18387 48.95360 18979 ft 274 kts 323°
2026-05-07 19:21 55.20003 48.93336 18971 ft 296 kts 323°
2026-05-07 19:21 55.21680 48.91235 18953 ft 296 kts 323°
2026-05-07 19:21 55.23354 48.89138 18965 ft 296 kts 323°
2026-05-07 19:21 55.25056 48.87009 18968 ft 297 kts 323°
2026-05-07 19:22 55.26768 48.84871 18965 ft 298 kts 323°
2026-05-07 19:22 55.28459 48.82761 18971 ft 299 kts 323°
2026-05-07 19:22 55.30156 48.80647 18970 ft 298 kts 323°
2026-05-07 19:22 55.31833 48.78562 18874 ft 294 kts 323°
2026-05-07 19:23 55.33493 48.76510 18655 ft 291 kts 326°
2026-05-07 19:23 55.35206 48.74736 18426 ft 287 kts 326°
2026-05-07 19:23 55.36855 48.72796 18174 ft 284 kts 324°
2026-05-07 19:23 55.38472 48.70828 17895 ft 281 kts 324°
2026-05-07 19:24 55.40071 48.68868 17622 ft 279 kts 324°
2026-05-07 19:24 55.41675 48.66894 17338 ft 277 kts 324°
2026-05-07 19:24 55.43269 48.65097 17040 ft 276 kts 337°
2026-05-07 19:24 55.45202 48.64547 16103 ft 299 kts
2026-05-07 19:25 55.47264 48.65943 14881 ft 331 kts 36°
2026-05-07 19:25 55.48693 48.69064 14362 ft 332 kts 59°
2026-05-07 19:25 55.49836 48.72529 13956 ft 323 kts 53°
2026-05-07 19:25 55.51218 48.75571 13520 ft 314 kts 44°
2026-05-07 19:26 55.52789 48.78182 13080 ft 307 kts 38°
2026-05-07 19:26 55.54449 48.80486 12638 ft 301 kts 34°
2026-05-07 19:26 55.56142 48.82602 12183 ft 295 kts 32°
2026-05-07 19:26 55.57836 48.84603 11757 ft 291 kts 31°
2026-05-07 19:27 55.59514 48.86542 11329 ft 287 kts 31°
2026-05-07 19:27 55.61178 48.88455 10902 ft 283 kts 31°
2026-05-07 19:27 55.62823 48.90343 10481 ft 280 kts 31°
2026-05-07 19:27 55.64585 48.91659 10023 ft 275 kts
2026-05-07 19:28 55.66465 48.91557 9565 ft 270 kts 345°
2026-05-07 19:28 55.68146 48.90157 9095 ft 268 kts 322°
2026-05-07 19:28 55.69372 48.87720 8632 ft 266 kts 300°
2026-05-07 19:28 55.69949 48.84620 8172 ft 267 kts 276°
2026-05-07 19:29 55.69773 48.81366 7711 ft 267 kts 253°
2026-05-07 19:29 55.68915 48.78461 7289 ft 268 kts 233°
2026-05-07 19:29 55.67542 48.76244 6867 ft 268 kts 217°
2026-05-07 19:29 55.66001 48.74417 6466 ft 266 kts 214°
2026-05-07 19:30 55.64454 48.72648 6091 ft 262 kts 214°
2026-05-07 19:30 55.62974 48.70940 5989 ft 246 kts 214°
2026-05-07 19:30 55.61589 48.69331 5950 ft 229 kts 213°
2026-05-07 19:30 55.60163 48.68394 5956 ft 212 kts 189°
2026-05-07 19:31 55.58714 48.68352 5953 ft 207 kts 172°
2026-05-07 19:31 55.57398 48.69200 5942 ft 208 kts 137°
2026-05-07 19:31 55.56669 48.71344 5989 ft 208 kts 98°
2026-05-07 19:31 55.56833 48.73838 5985 ft 206 kts 61°
2026-05-07 19:32 55.57680 48.75860 5988 ft 207 kts 45°
2026-05-07 19:32 55.58686 48.77698 5981 ft 208 kts 44°
2026-05-07 19:32 55.59699 48.79504 5876 ft 207 kts 44°
2026-05-07 19:32 55.60714 48.81318 5697 ft 207 kts 44°
2026-05-07 19:33 55.61715 48.83119 5513 ft 202 kts 44°
2026-05-07 19:33 55.62667 48.84840 5324 ft 196 kts 44°
2026-05-07 19:33 55.63608 48.86547 5148 ft 193 kts 44°
2026-05-07 19:33 55.64543 48.88248 4978 ft 193 kts 44°
2026-05-07 19:34 55.65479 48.89956 4821 ft 194 kts 44°
2026-05-07 19:34 55.66417 48.91672 4639 ft 194 kts 45°
2026-05-07 19:34 55.67357 48.93396 4472 ft 195 kts 45°
2026-05-07 19:34 55.68298 48.95121 4295 ft 195 kts 45°
2026-05-07 19:35 55.69258 48.96883 3857 ft 209 kts 46°
2026-05-07 19:35 55.70196 48.98954 3199 ft 220 kts 67°
2026-05-07 19:35 55.70359 49.01540 2872 ft 209 kts 108°
2026-05-07 19:35 55.69726 49.03865 2813 ft 212 kts 119°
2026-05-07 19:36 55.69248 49.05369 2735 ft 211 kts 122°
2026-05-07 19:36 55.68487 49.07554 2650 ft 207 kts 124°
2026-05-07 19:36 55.67687 49.09685 2429 ft 208 kts 126°
2026-05-07 19:36 55.66605 49.12464 2066 ft 203 kts 126°
2026-05-07 19:37 55.66076 49.13825 1893 ft 196 kts 126°
2026-05-07 19:37 55.65083 49.16381 1554 ft 184 kts 125°
2026-05-07 19:37 55.64384 49.18180 1319 ft 171 kts 125°
2026-05-07 19:37 55.63934 49.19342 1193 ft 168 kts 124°
2026-05-07 19:38 55.63359 49.20823 972 ft 166 kts 124°
2026-05-07 19:38 55.63110 49.21465 883 ft 161 kts 124°
2026-05-07 19:39 55.62645 49.22665 704 ft 152 kts 124°
2026-05-07 19:39 55.62070 49.24160 525 ft 144 kts 123°
2026-05-07 19:40 55.61495 49.25655 456 ft 136 kts 124°
2026-05-07 19:40 55.60982 49.26969 521 ft 137 kts 123°
2026-05-07 19:40 55.60440 49.28392 1325 ft 136 kts 124°
2026-05-07 19:40 55.60109 49.29259 1955 ft 133 kts 125°
2026-05-07 19:41 55.59553 49.30691 2478 ft 149 kts 125°
2026-05-07 19:41 55.58912 49.32335 2689 ft 182 kts 125°
2026-05-07 19:41 55.58122 49.34281 2726 ft 210 kts 133°
2026-05-07 19:41 55.56879 49.35536 2704 ft 213 kts 169°
2026-05-07 19:42 55.55432 49.35192 2702 ft 214 kts 207°
2026-05-07 19:42 55.54417 49.33326 3088 ft 217 kts 244°
2026-05-07 19:42 55.54196 49.30726 3627 ft 217 kts 276°
2026-05-07 19:42 55.54461 49.28112 3957 ft 218 kts 283°
2026-05-07 19:43 55.54805 49.25503 3983 ft 218 kts 284°
2026-05-07 19:43 55.55153 49.22885 3990 ft 219 kts 283°
2026-05-07 19:43 55.55493 49.20260 3990 ft 218 kts 283°
2026-05-07 19:43 55.55824 49.17645 3986 ft 218 kts 283°
2026-05-07 19:44 55.56147 49.15024 3996 ft 218 kts 282°
2026-05-07 19:44 55.56467 49.12404 3998 ft 218 kts 282°
2026-05-07 19:44 55.56785 49.09784 3996 ft 218 kts 282°
2026-05-07 19:44 55.57342 49.07356 3984 ft 217 kts 307°
2026-05-07 19:45 55.58358 49.05393 3991 ft 217 kts 314°
2026-05-07 19:45 55.59411 49.03460 3992 ft 218 kts 314°
2026-05-07 19:45 55.60463 49.01534 3993 ft 219 kts 314°
2026-05-07 19:45 55.61526 48.99599 3983 ft 219 kts 314°
2026-05-07 19:46 55.62592 48.97667 3983 ft 219 kts 314°
2026-05-07 19:46 55.63632 48.95785 3960 ft 205 kts 314°
2026-05-07 19:46 55.64590 48.94057 3957 ft 189 kts 314°
2026-05-07 19:46 55.65486 48.92449 3970 ft 182 kts 314°
2026-05-07 19:47 55.66366 48.90888 3976 ft 177 kts 317°
2026-05-07 19:47 55.67468 48.90206 3981 ft 175 kts
2026-05-07 19:47 55.68477 48.91350 3983 ft 180 kts 59°
2026-05-07 19:47 55.69106 48.93251 3978 ft 180 kts 52°
2026-05-07 19:48 55.69912 48.94904 3983 ft 176 kts 51°
2026-05-07 19:48 55.70450 48.96863 4012 ft 178 kts 69°
2026-05-07 19:48 55.70810 48.98988 3736 ft 188 kts 83°
2026-05-07 19:48 55.70682 49.01392 3203 ft 199 kts 106°
2026-05-07 19:49 55.70113 49.03548 2956 ft 189 kts 128°
2026-05-07 19:49 55.69358 49.05354 2848 ft 174 kts 126°
2026-05-07 19:49 55.68697 49.07074 2765 ft 167 kts 125°
2026-05-07 19:49 55.68027 49.08803 2539 ft 169 kts 126°
2026-05-07 19:50 55.67383 49.10459 2328 ft 161 kts 126°
2026-05-07 19:50 55.66751 49.12087 2114 ft 156 kts 126°
2026-05-07 19:50 55.66167 49.13589 1931 ft 154 kts 126°
2026-05-07 19:50 55.65556 49.15160 1730 ft 156 kts 126°
2026-05-07 19:51 55.64947 49.16742 1479 ft 156 kts 124°
2026-05-07 19:51 55.64330 49.18316 1225 ft 156 kts 126°
2026-05-07 19:51 55.63729 49.19888 1098 ft 151 kts 123°
2026-05-07 19:51 55.63117 49.21430 935 ft 155 kts 124°
2026-05-07 19:52 55.62529 49.22954 699 ft 143 kts 124°
2026-05-07 19:52 55.61997 49.24339 520 ft 131 kts 124°
2026-05-07 19:52 55.61504 49.25603 417 ft 115 kts 123°
2026-05-07 19:52 55.61102 49.26646 414 ft 86 kts 126°
2026-05-07 19:53 55.60832 49.27350 407 ft 54 kts 124°
2026-05-07 19:53 55.60635 49.27866 416 ft 48 kts 124°
2026-05-07 19:53 55.60452 49.28344 412 ft 45 kts 124°
2026-05-07 19:53 55.60406 49.28573 411 ft 1 kts 62°
2026-05-07 19:54 55.60415 49.28592 411 ft 3 kts 49°
2026-05-07 19:54 55.60453 49.28650 416 ft 12 kts 33°
2026-05-07 19:54 55.60471 49.28672 415 ft 4 kts 35°
2026-05-07 19:54 55.60484 49.28689 415 ft 0 kts 35°
2026-05-07 19:56 55.60496 49.28704 415 ft 5 kts 35°
2026-05-07 19:57 55.60515 49.28784 415 ft 10 kts 94°
2026-05-07 19:57 55.60474 49.28917 412 ft 15 kts 124°
2026-05-07 19:57 55.60406 49.29095 409 ft 20 kts 124°
2026-05-07 19:57 55.60326 49.29304 409 ft 20 kts 124°
2026-05-07 19:58 55.60247 49.29505 412 ft 20 kts 125°
2026-05-07 19:58 55.60167 49.29717 411 ft 22 kts 124°
2026-05-07 19:58 55.60113 49.29940 407 ft 13 kts 60°
2026-05-07 19:58 55.60146 49.29974 415 ft 1 kts 357°
2026-05-07 19:59 55.60181 49.29952 415 ft 9 kts 335°
2026-05-07 19:59 55.60238 49.29904 415 ft 10 kts 335°
2026-05-07 19:59 55.60312 49.29879 415 ft 12 kts
2026-05-07 19:59 55.60402 49.29941 407 ft 15 kts 26°
2026-05-07 20:00 55.60500 49.30054 415 ft 18 kts 34°
2026-05-07 20:00 55.60607 49.30014 412 ft 18 kts 304°
2026-05-07 20:00 55.60626 49.29968 412 ft 0 kts 321°
2026-05-07 20:00 55.60638 49.29963 406 ft 4 kts 350°
2026-05-07 20:01 55.60671 49.29991 413 ft 6 kts 34°
2026-05-07 20:01 55.60697 49.30023 415 ft 0 kts 34°